User: anonymous   Login
Location: Libas
(9.8833°N, 125.9833°E)
Time: 13:43:54
(UTC+00:00)
Language:

ATLAS CENTAUR R/B - Orbit

View from above orbital plane
View from above orbital plane
View from above satellite
View from above satellite

Ground track
Ground track

The orbit data is extracted from the following two-line orbital elements,

1 38770U 12048N   21012.69267400 0.00000582  00000-0  40122-4 0    01
2 38770  64.6637 221.0979 0137554  65.3952 294.6048 14.98123267    00
Epoch (UTC): 12 January 2021 16:37:27
Eccentricity: 0.0137554
inclination: 64.6637°
perigee height: 477 km
apogee height: 668 km
right ascension of ascending node: 221.0979°
argument of perigee: 65.3952°
revolutions per day: 14.98123267
mean anomaly at epoch: 294.6048°
orbit number at epoch: 0

The dashed part of the orbit path shows where the satellite is in the earth's shadow,  

DLR